| time (UTC) | temp F | wind direction | speed MPH | gust MPH | rain 1hr in | rain 24hr in | rain mn in | humidity % | barometer mb |
| 20260510151752 | 0 | 154 | 2.0 | 3.0 | 0.00 | 0.00 | 0.00 | 45 | 1004.4 |
| 20260510151251 | 0 | 150 | 0.0 | 0.0 | 0.00 | 0.00 | 0.00 | 49 | 1004.4 |
| 20260510150751 | 0 | 157 | 0.0 | 0.0 | 0.00 | 0.00 | 0.00 | 49 | 1004.1 |
| 20260510150251 | 0 | 157 | 0.0 | 0.0 | 0.00 | 0.00 | 0.00 | 52 | 1004.3 |
| 20260510145750 | 0 | 146 | 0.0 | 0.0 | 0.00 | 0.00 | 0.00 | 51 | 1004.2 |
| 20260510145250 | 0 | 163 | 0.0 | 0.0 | 0.00 | 0.00 | 0.00 | 51 | 1004.2 |
| 20260510144749 | 0 | 155 | 0.0 | 0.0 | 0.00 | 0.00 | 0.00 | 52 | 1004.2 |
| 20260510144249 | 0 | 138 | 0.0 | 0.0 | 0.00 | 0.00 | 0.00 | 53 | 1004.2 |
| 20260510143749 | 0 | 90 | 1.0 | 1.0 | 0.00 | 0.00 | 0.00 | 56 | 1004.2 |
| 20260510143248 | 0 | 161 | 0.0 | 1.0 | 0.00 | 0.00 | 0.00 | 60 | 1004.1 |
| 20260510142748 | 0 | 173 | 1.0 | 2.0 | 0.00 | 0.00 | 0.00 | 58 | 1004.3 |
| 20260510142246 | 0 | 351 | 0.0 | 1.0 | 0.00 | 0.00 | 0.00 | 59 | 1004.4 |
| 20260510141745 | 0 | 181 | 0.0 | 0.0 | 0.00 | 0.00 | 0.00 | 60 | 1004.2 |
| 20260510141245 | 0 | 207 | 0.0 | 0.0 | 0.00 | 0.00 | 0.00 | 62 | 1004.2 |
| 20260510140745 | 0 | 204 | 0.0 | 0.0 | 0.00 | 0.00 | 0.00 | 63 | 1004.3 |
| 20260510135744 | 0 | 187 | 0.0 | 0.0 | 0.00 | 0.00 | 0.00 | 65 | 1004.3 |
| 20260510135244 | 0 | 81 | 2.0 | 2.0 | 0.00 | 0.00 | 0.00 | 66 | 1004.4 |
| 20260510134743 | 0 | 119 | 0.0 | 0.0 | 0.00 | 0.00 | 0.00 | 68 | 1004.4 |
| 20260510134243 | 0 | 303 | 1.0 | 2.0 | 0.00 | 0.00 | 0.00 | 68 | 1004.4 |
| 20260510133742 | 0 | 116 | 0.0 | 0.0 | 0.00 | 0.00 | 0.00 | 72 | 1004.4 |
| 20260510133242 | 0 | 77 | 0.0 | 0.0 | 0.00 | 0.00 | 0.00 | 75 | 1004.3 |
| 20260510132741 | 0 | 71 | 0.0 | 1.0 | 0.00 | 0.00 | 0.00 | 76 | 1004.3 |
| 20260510132240 | 0 | 76 | 0.0 | 0.0 | 0.00 | 0.00 | 0.00 | 75 | 1004.2 |
| 20260510131740 | 0 | 61 | 0.0 | 1.0 | 0.00 | 0.00 | 0.00 | 78 | 1004.3 |
| 20260510131240 | 0 | 118 | 0.0 | 0.0 | 0.00 | 0.00 | 0.00 | 80 | 1004.2 |
| 20260510130739 | 0 | 135 | 0.0 | 0.0 | 0.00 | 0.00 | 0.00 | 85 | 1004.3 |
| 20260510130239 | 0 | 136 | 0.0 | 0.0 | 0.00 | 0.00 | 0.00 | 85 | 1004.2 |
| 20260510125738 | 0 | 136 | 0.0 | 0.0 | 0.00 | 0.00 | 0.00 | 88 | 1004.0 |
| 20260510125237 | 0 | 136 | 0.0 | 0.0 | 0.00 | 0.00 | 0.00 | 89 | 1003.9 |
| 20260510124737 | 0 | 135 | 0.0 | 0.0 | 0.00 | 0.00 | 0.00 | 91 | 1004.0 |
| 20260510124237 | 0 | 158 | 0.0 | 0.0 | 0.00 | 0.00 | 0.00 | 92 | 1003.9 |
| 20260510123736 | 0 | 157 | 0.0 | 0.0 | 0.00 | 0.00 | 0.00 | 94 | 1003.9 |
| 20260510123236 | 0 | 157 | 0.0 | 0.0 | 0.00 | 0.00 | 0.00 | 96 | 1003.7 |
| 20260510122735 | 0 | 157 | 0.0 | 0.0 | 0.00 | 0.00 | 0.00 | 96 | 1003.7 |
| 20260510122235 | 0 | 157 | 0.0 | 0.0 | 0.00 | 0.00 | 0.00 | 97 | 1003.8 |
| 20260510121735 | 0 | 157 | 0.0 | 0.0 | 0.00 | 0.00 | 0.00 | 98 | 1003.8 |
| 20260510121234 | 0 | 157 | 0.0 | 0.0 | 0.00 | 0.00 | 0.00 | 98 | 1003.8 |
| 20260510120734 | 0 | 157 | 0.0 | 0.0 | 0.00 | 0.00 | 0.00 | 98 | 1003.5 |
| 20260510120233 | 0 | 157 | 0.0 | 0.0 | 0.00 | 0.00 | 0.00 | 98 | 1003.6 |
| 20260510115732 | 0 | 157 | 0.0 | 0.0 | 0.00 | 0.00 | 0.00 | 98 | 1003.6 |
| 20260510115232 | 0 | 157 | 0.0 | 0.0 | 0.00 | 0.00 | 0.00 | 98 | 1003.6 |
| 20260510114731 | 0 | 157 | 0.0 | 0.0 | 0.00 | 0.00 | 0.00 | 98 | 1003.4 |
| 20260510114231 | 0 | 157 | 0.0 | 0.0 | 0.00 | 0.00 | 0.00 | 98 | 1003.6 |
| 20260510113731 | 0 | 157 | 0.0 | 0.0 | 0.00 | 0.00 | 0.00 | 98 | 1003.3 |
| 20260510113230 | 0 | 157 | 0.0 | 0.0 | 0.00 | 0.00 | 0.00 | 98 | 1003.3 |
| 20260510112730 | 0 | 157 | 0.0 | 0.0 | 0.00 | 0.00 | 0.00 | 98 | 1003.1 |
| 20260510112229 | 0 | 157 | 0.0 | 0.0 | 0.00 | 0.00 | 0.00 | 98 | 1003.0 |
| 20260510111729 | 0 | 157 | 0.0 | 0.0 | 0.00 | 0.00 | 0.00 | 98 | 1003.1 |
| 20260510111228 | 0 | 157 | 0.0 | 0.0 | 0.00 | 0.00 | 0.00 | 98 | 1003.0 |
| 20260510110728 | 0 | 157 | 0.0 | 0.0 | 0.00 | 0.00 | 0.00 | 98 | 1002.9 |
| 20260510110227 | 0 | 157 | 0.0 | 0.0 | 0.00 | 0.00 | 0.00 | 98 | 1003.0 |
| 20260510105727 | 0 | 157 | 0.0 | 0.0 | 0.00 | 0.00 | 0.00 | 98 | 1002.7 |
| 20260510105226 | 0 | 157 | 0.0 | 0.0 | 0.00 | 0.00 | 0.00 | 98 | 1002.6 |
| 20260510104726 | 0 | 157 | 0.0 | 0.0 | 0.00 | 0.00 | 0.00 | 98 | 1002.5 |
| 20260510104225 | 0 | 157 | 0.0 | 0.0 | 0.00 | 0.00 | 0.00 | 98 | 1002.7 |
| 20260510103725 | 0 | 157 | 0.0 | 0.0 | 0.00 | 0.00 | 0.00 | 98 | 1002.6 |
| 20260510103225 | 0 | 157 | 0.0 | 0.0 | 0.00 | 0.00 | 0.00 | 98 | 1002.5 |
| 20260510102724 | 0 | 157 | 0.0 | 0.0 | 0.00 | 0.00 | 0.00 | 98 | 1002.4 |
| 20260510102224 | 0 | 157 | 0.0 | 0.0 | 0.00 | 0.00 | 0.00 | 98 | 1002.3 |
| 20260510101723 | 0 | 157 | 0.0 | 0.0 | 0.00 | 0.00 | 0.00 | 98 | 1002.1 |
| 20260510101223 | 0 | 157 | 0.0 | 0.0 | 0.00 | 0.00 | 0.00 | 98 | 1001.9 |
| 20260510100722 | 0 | 157 | 0.0 | 0.0 | 0.00 | 0.00 | 0.00 | 98 | 1002.0 |
| 20260510100222 | 0 | 157 | 0.0 | 0.0 | 0.00 | 0.00 | 0.00 | 97 | 1001.7 |
| 20260510095722 | 0 | 157 | 0.0 | 0.0 | 0.00 | 0.00 | 0.00 | 97 | 1001.8 |
| 20260510095221 | 0 | 157 | 0.0 | 0.0 | 0.00 | 0.00 | 0.00 | 97 | 1001.7 |
| 20260510094720 | 0 | 157 | 0.0 | 0.0 | 0.00 | 0.00 | 0.00 | 97 | 1001.7 |
| 20260510094220 | 0 | 157 | 0.0 | 0.0 | 0.00 | 0.00 | 0.00 | 97 | 1001.4 |
| 20260510093720 | 0 | 157 | 0.0 | 0.0 | 0.00 | 0.00 | 0.00 | 97 | 1001.5 |
| 20260510093219 | 0 | 157 | 0.0 | 0.0 | 0.00 | 0.00 | 0.00 | 97 | 1001.5 |
| 20260510092719 | 0 | 157 | 0.0 | 0.0 | 0.00 | 0.00 | 0.00 | 97 | 1001.6 |
| 20260510092219 | 0 | 157 | 0.0 | 0.0 | 0.00 | 0.00 | 0.00 | 97 | 1001.4 |
| 20260510091718 | 0 | 157 | 0.0 | 0.0 | 0.00 | 0.00 | 0.00 | 97 | 1001.5 |
| 20260510091218 | 0 | 157 | 0.0 | 0.0 | 0.00 | 0.00 | 0.00 | 97 | 1001.4 |
| 20260510090717 | 0 | 157 | 0.0 | 0.0 | 0.00 | 0.00 | 0.00 | 97 | 1001.3 |
| 20260510090217 | 0 | 157 | 0.0 | 0.0 | 0.00 | 0.00 | 0.00 | 97 | 1001.2 |
| 20260510085717 | 0 | 157 | 0.0 | 0.0 | 0.00 | 0.00 | 0.00 | 97 | 1001.3 |
| 20260510085216 | 0 | 157 | 0.0 | 0.0 | 0.00 | 0.00 | 0.00 | 97 | 1001.3 |
| 20260510084716 | 0 | 157 | 0.0 | 0.0 | 0.00 | 0.00 | 0.00 | 97 | 1001.3 |
| 20260510084215 | 0 | 157 | 0.0 | 0.0 | 0.00 | 0.00 | 0.00 | 97 | 1001.1 |
| 20260510083715 | 0 | 157 | 0.0 | 0.0 | 0.00 | 0.00 | 0.00 | 97 | 1001.3 |
| 20260510083215 | 0 | 157 | 0.0 | 0.0 | 0.00 | 0.00 | 0.00 | 97 | 1001.0 |
| 20260510082714 | 0 | 157 | 0.0 | 0.0 | 0.00 | 0.00 | 0.00 | 97 | 1001.1 |
| 20260510082214 | 0 | 157 | 0.0 | 0.0 | 0.00 | 0.00 | 0.00 | 97 | 1000.9 |
| 20260510081714 | 0 | 157 | 0.0 | 0.0 | 0.00 | 0.00 | 0.00 | 97 | 1001.2 |
| 20260510081213 | 0 | 157 | 0.0 | 0.0 | 0.00 | 0.00 | 0.00 | 97 | 1001.1 |
| 20260510080712 | 0 | 157 | 0.0 | 0.0 | 0.00 | 0.00 | 0.00 | 97 | 1000.8 |
| 20260510080212 | 0 | 157 | 0.0 | 0.0 | 0.00 | 0.00 | 0.00 | 97 | 1001.0 |
| 20260510075711 | 0 | 157 | 0.0 | 0.0 | 0.00 | 0.00 | 0.00 | 97 | 1001.1 |
| 20260510075211 | 0 | 157 | 0.0 | 0.0 | 0.00 | 0.00 | 0.00 | 97 | 1001.0 |
| 20260510074711 | 0 | 157 | 0.0 | 0.0 | 0.00 | 0.00 | 0.00 | 97 | 1001.0 |
| 20260510074210 | 0 | 157 | 0.0 | 0.0 | 0.00 | 0.00 | 0.00 | 97 | 1000.9 |
| 20260510073710 | 0 | 157 | 0.0 | 0.0 | 0.00 | 0.00 | 0.00 | 97 | 1000.9 |
| 20260510073209 | 0 | 157 | 0.0 | 0.0 | 0.00 | 0.00 | 0.00 | 97 | 1000.8 |
| 20260510072708 | 0 | 157 | 0.0 | 0.0 | 0.00 | 0.00 | 0.00 | 97 | 1000.7 |
| 20260510072208 | 0 | 157 | 0.0 | 0.0 | 0.00 | 0.00 | 0.00 | 97 | 1000.6 |
| 20260510071708 | 0 | 157 | 0.0 | 0.0 | 0.00 | 0.00 | 0.00 | 97 | 1000.7 |
| 20260510071207 | 0 | 157 | 0.0 | 0.0 | 0.00 | 0.00 | 0.00 | 97 | 1000.7 |
| 20260510070707 | 0 | 157 | 0.0 | 0.0 | 0.00 | 0.00 | 0.00 | 97 | 1000.7 |
| 20260510070150 | 0 | 157 | 0.0 | 0.0 | 0.00 | 0.00 | 0.00 | 97 | 1000.8 |
| 20260510065639 | 0 | 157 | 0.0 | 0.0 | 0.00 | 0.00 | 0.00 | 97 | 1000.8 |
| 20260510065139 | 0 | 157 | 0.0 | 0.0 | 0.00 | 0.00 | 0.00 | 97 | 1001.0 |
| 20260510064638 | 0 | 157 | 0.0 | 0.0 | 0.00 | 0.00 | 0.00 | 97 | 1000.9 |
| 20260510064138 | 0 | 157 | 0.0 | 0.0 | 0.00 | 0.00 | 0.00 | 97 | 1000.9 |
| 20260510063633 | 0 | 157 | 0.0 | 0.0 | 0.00 | 0.00 | 0.00 | 96 | 1000.7 |
| 20260510063132 | 0 | 157 | 0.0 | 0.0 | 0.00 | 0.00 | 0.00 | 97 | 1000.8 |
| 20260510062632 | 0 | 157 | 0.0 | 0.0 | 0.00 | 0.00 | 0.00 | 96 | 1000.6 |
| 20260510062131 | 0 | 157 | 0.0 | 0.0 | 0.00 | 0.00 | 0.00 | 96 | 1000.4 |
| 20260510061631 | 0 | 157 | 0.0 | 0.0 | 0.00 | 0.00 | 0.00 | 96 | 1000.5 |
| 20260510061130 | 0 | 157 | 0.0 | 0.0 | 0.00 | 0.00 | 0.00 | 96 | 1000.5 |
| 20260510060630 | 0 | 157 | 0.0 | 0.0 | 0.00 | 0.00 | 0.00 | 96 | 1000.6 |
| 20260510060129 | 0 | 157 | 0.0 | 0.0 | 0.00 | 0.00 | 0.00 | 96 | 1000.8 |
| 20260510055629 | 0 | 157 | 0.0 | 0.0 | 0.00 | 0.00 | 0.00 | 96 | 1000.9 |
| 20260510055128 | 0 | 157 | 0.0 | 0.0 | 0.00 | 0.00 | 0.00 | 96 | 1001.1 |
| 20260510054628 | 0 | 157 | 0.0 | 0.0 | 0.00 | 0.00 | 0.00 | 96 | 1001.1 |
| 20260510054127 | 0 | 157 | 0.0 | 0.0 | 0.00 | 0.00 | 0.00 | 96 | 1001.1 |
| 20260510053627 | 0 | 157 | 0.0 | 0.0 | 0.00 | 0.00 | 0.00 | 96 | 1000.9 |
| 20260510053126 | 0 | 157 | 0.0 | 0.0 | 0.00 | 0.00 | 0.00 | 96 | 1001.2 |
| 20260510052626 | 0 | 157 | 0.0 | 0.0 | 0.00 | 0.00 | 0.00 | 96 | 1000.9 |
| 20260510052125 | 0 | 157 | 0.0 | 0.0 | 0.00 | 0.00 | 0.00 | 96 | 1001.2 |
| 20260510051624 | 0 | 157 | 0.0 | 0.0 | 0.00 | 0.00 | 0.00 | 96 | 1001.2 |
| 20260510051119 | 0 | 157 | 0.0 | 0.0 | 0.00 | 0.00 | 0.00 | 96 | 1001.2 |
| 20260510050619 | 0 | 157 | 0.0 | 0.0 | 0.00 | 0.00 | 0.00 | 96 | 1001.3 |
| 20260510050118 | 0 | 157 | 0.0 | 0.0 | 0.00 | 0.00 | 0.00 | 96 | 1001.1 |
| 20260510045618 | 0 | 157 | 0.0 | 0.0 | 0.00 | 0.00 | 0.00 | 96 | 1001.2 |
| 20260510045118 | 0 | 157 | 0.0 | 0.0 | 0.00 | 0.00 | 0.00 | 95 | 1001.2 |
| 20260510044617 | 0 | 157 | 0.0 | 0.0 | 0.00 | 0.00 | 0.00 | 95 | 1001.4 |
| 20260510044117 | 0 | 157 | 0.0 | 0.0 | 0.00 | 0.00 | 0.00 | 95 | 1001.5 |
| 20260510043616 | 0 | 157 | 0.0 | 0.0 | 0.00 | 0.00 | 0.00 | 95 | 1001.6 |
| 20260510043116 | 0 | 157 | 0.0 | 0.0 | 0.00 | 0.00 | 0.00 | 95 | 1001.2 |
| 20260510042616 | 0 | 157 | 0.0 | 0.0 | 0.00 | 0.00 | 0.00 | 95 | 1001.4 |
| 20260510042115 | 0 | 157 | 0.0 | 0.0 | 0.00 | 0.00 | 0.00 | 95 | 1001.3 |
| 20260510041615 | 0 | 157 | 0.0 | 0.0 | 0.00 | 0.00 | 0.00 | 95 | 1001.3 |
| 20260510041114 | 0 | 157 | 0.0 | 0.0 | 0.00 | 0.00 | 0.00 | 95 | 1001.3 |
| 20260510040614 | 0 | 157 | 0.0 | 0.0 | 0.00 | 0.00 | 0.00 | 94 | 1001.3 |
| 20260510040114 | 0 | 157 | 0.0 | 0.0 | 0.00 | 0.00 | 0.00 | 95 | 1001.4 |
| 20260510035613 | 0 | 157 | 0.0 | 0.0 | 0.00 | 0.00 | 0.00 | 94 | 1001.2 |
| 20260510035113 | 0 | 157 | 0.0 | 0.0 | 0.00 | 0.00 | 0.00 | 94 | 1001.0 |
| 20260510034613 | 0 | 157 | 0.0 | 0.0 | 0.00 | 0.00 | 0.00 | 94 | 1001.0 |
| 20260510034112 | 0 | 157 | 0.0 | 0.0 | 0.00 | 0.00 | 0.00 | 94 | 1001.2 |
| 20260510033612 | 0 | 157 | 0.0 | 0.0 | 0.00 | 0.00 | 0.00 | 94 | 1001.0 |
| 20260510033111 | 0 | 157 | 0.0 | 0.0 | 0.00 | 0.00 | 0.00 | 94 | 1001.0 |
| 20260510032611 | 0 | 157 | 0.0 | 0.0 | 0.00 | 0.00 | 0.00 | 93 | 1001.2 |
| 20260510032110 | 0 | 157 | 0.0 | 0.0 | 0.00 | 0.00 | 0.00 | 93 | 1001.1 |
| 20260510031610 | 0 | 157 | 0.0 | 0.0 | 0.00 | 0.00 | 0.00 | 93 | 1001.0 |
| 20260510031110 | 0 | 157 | 0.0 | 0.0 | 0.00 | 0.00 | 0.00 | 93 | 1000.9 |
| 20260510030609 | 0 | 157 | 0.0 | 0.0 | 0.00 | 0.00 | 0.00 | 93 | 1001.1 |
| 20260510030109 | 0 | 157 | 0.0 | 0.0 | 0.00 | 0.00 | 0.00 | 92 | 1001.0 |
| 20260510025608 | 0 | 157 | 0.0 | 0.0 | 0.00 | 0.00 | 0.00 | 92 | 1000.9 |
| 20260510025108 | 0 | 157 | 0.0 | 0.0 | 0.00 | 0.00 | 0.00 | 92 | 1000.9 |
| 20260510024608 | 0 | 157 | 0.0 | 0.0 | 0.00 | 0.00 | 0.00 | 92 | 1000.9 |
| 20260510024107 | 0 | 157 | 0.0 | 0.0 | 0.00 | 0.00 | 0.00 | 91 | 1000.7 |
| 20260510023607 | 0 | 157 | 0.0 | 0.0 | 0.00 | 0.00 | 0.00 | 91 | 1000.9 |
| 20260510023106 | 0 | 157 | 0.0 | 0.0 | 0.00 | 0.00 | 0.00 | 91 | 1001.1 |
| 20260510022601 | 0 | 157 | 0.0 | 0.0 | 0.00 | 0.00 | 0.00 | 91 | 1000.9 |
| 20260510022100 | 0 | 157 | 0.0 | 0.0 | 0.00 | 0.00 | 0.00 | 90 | 1001.0 |
| 20260510021600 | 0 | 157 | 0.0 | 0.0 | 0.00 | 0.00 | 0.00 | 90 | 1000.6 |
| 20260510021100 | 0 | 157 | 0.0 | 0.0 | 0.00 | 0.00 | 0.00 | 90 | 1000.7 |
| 20260510020559 | 0 | 157 | 0.0 | 0.0 | 0.00 | 0.00 | 0.00 | 90 | 1000.8 |
| 20260510020059 | 0 | 157 | 0.0 | 0.0 | 0.00 | 0.00 | 0.00 | 89 | 1000.6 |
| 20260510015559 | 0 | 157 | 0.0 | 0.0 | 0.00 | 0.00 | 0.00 | 89 | 1000.9 |
| 20260510015058 | 0 | 157 | 0.0 | 0.0 | 0.00 | 0.00 | 0.00 | 89 | 1000.6 |
| 20260510014558 | 0 | 157 | 0.0 | 0.0 | 0.00 | 0.00 | 0.00 | 88 | 1000.6 |
| 20260510014058 | 0 | 157 | 0.0 | 0.0 | 0.00 | 0.00 | 0.00 | 88 | 1000.4 |
| 20260510013557 | 0 | 157 | 0.0 | 0.0 | 0.00 | 0.00 | 0.00 | 88 | 1000.5 |
| 20260510013057 | 0 | 157 | 0.0 | 0.0 | 0.00 | 0.00 | 0.00 | 87 | 1000.1 |
| 20260510012557 | 0 | 157 | 0.0 | 0.0 | 0.00 | 0.00 | 0.00 | 86 | 1000.2 |
| 20260510012056 | 0 | 157 | 0.0 | 0.0 | 0.00 | 0.00 | 0.00 | 86 | 999.9 |
| 20260510011556 | 0 | 157 | 0.0 | 0.0 | 0.00 | 0.00 | 0.00 | 86 | 1000.0 |
| 20260510011056 | 0 | 157 | 0.0 | 0.0 | 0.00 | 0.00 | 0.00 | 85 | 999.8 |
| 20260510010555 | 0 | 157 | 0.0 | 0.0 | 0.00 | 0.00 | 0.00 | 84 | 999.9 |
| 20260510010055 | 0 | 157 | 0.0 | 0.0 | 0.00 | 0.00 | 0.00 | 84 | 999.8 |
| 20260510005555 | 0 | 157 | 0.0 | 0.0 | 0.00 | 0.00 | 0.00 | 83 | 999.8 |
| 20260510005054 | 0 | 157 | 0.0 | 0.0 | 0.00 | 0.00 | 0.00 | 82 | 999.8 |
| 20260510004554 | 0 | 157 | 0.0 | 0.0 | 0.00 | 0.00 | 0.00 | 82 | 999.9 |
| 20260510004053 | 0 | 157 | 0.0 | 0.0 | 0.00 | 0.00 | 0.00 | 81 | 999.8 |
| 20260510003553 | 0 | 157 | 0.0 | 0.0 | 0.00 | 0.00 | 0.00 | 80 | 999.6 |
| 20260510003052 | 0 | 157 | 0.0 | 0.0 | 0.00 | 0.00 | 0.00 | 79 | 999.6 |
| 20260510002552 | 0 | 157 | 0.0 | 0.0 | 0.00 | 0.00 | 0.00 | 79 | 999.7 |
| 20260510002051 | 0 | 157 | 0.0 | 0.0 | 0.00 | 0.00 | 0.00 | 78 | 999.8 |
| 20260510001551 | 0 | 157 | 0.0 | 0.0 | 0.00 | 0.00 | 0.00 | 77 | 999.8 |
| 20260510001051 | 0 | 157 | 0.0 | 0.0 | 0.00 | 0.00 | 0.00 | 77 | 999.6 |
| 20260510000550 | 0 | 157 | 0.0 | 0.0 | 0.00 | 0.00 | 0.00 | 76 | 999.5 |
| 20260510000046 | 0 | 157 | 0.0 | 0.0 | 0.00 | 0.00 | 0.00 | 76 | 999.5 |
| 20260509235545 | 0 | 157 | 0.0 | 0.0 | 0.00 | 0.00 | 0.00 | 75 | 999.5 |
| 20260509235044 | 0 | 157 | 0.0 | 0.0 | 0.00 | 0.00 | 0.00 | 75 | 999.3 |
| 20260509234544 | 0 | 157 | 0.0 | 0.0 | 0.00 | 0.00 | 0.00 | 74 | 999.5 |
| 20260509234044 | 0 | 157 | 0.0 | 0.0 | 0.00 | 0.00 | 0.00 | 74 | 999.2 |
| 20260509233544 | 0 | 157 | 0.0 | 0.0 | 0.00 | 0.00 | 0.00 | 73 | 999.0 |
| 20260509233043 | 0 | 157 | 0.0 | 0.0 | 0.00 | 0.00 | 0.00 | 73 | 999.2 |
| 20260509232543 | 0 | 157 | 0.0 | 0.0 | 0.00 | 0.00 | 0.00 | 72 | 999.0 |
| 20260509232042 | 0 | 157 | 0.0 | 0.0 | 0.00 | 0.00 | 0.00 | 72 | 999.4 |
| 20260509231541 | 0 | 162 | 0.0 | 0.0 | 0.00 | 0.00 | 0.00 | 72 | 999.2 |
| 20260509231041 | 0 | 162 | 0.0 | 0.0 | 0.00 | 0.00 | 0.00 | 71 | 998.9 |
| 20260509230040 | 0 | 162 | 0.0 | 0.0 | 0.00 | 0.00 | 0.00 | 71 | 999.0 |
| 20260509225540 | 0 | 162 | 0.0 | 0.0 | 0.00 | 0.00 | 0.00 | 70 | 999.0 |
| 20260509225040 | 0 | 162 | 0.0 | 0.0 | 0.00 | 0.00 | 0.00 | 70 | 998.8 |
| 20260509224539 | 0 | 162 | 0.0 | 0.0 | 0.00 | 0.00 | 0.00 | 69 | 998.6 |
| 20260509224039 | 0 | 162 | 0.0 | 0.0 | 0.00 | 0.00 | 0.00 | 70 | 998.7 |
| 20260509223539 | 0 | 163 | 0.0 | 0.0 | 0.00 | 0.00 | 0.00 | 70 | 998.7 |
| 20260509223038 | 0 | 162 | 0.0 | 0.0 | 0.00 | 0.00 | 0.00 | 70 | 998.9 |
| 20260509222538 | 0 | 162 | 0.0 | 0.0 | 0.00 | 0.00 | 0.00 | 70 | 998.9 |
| 20260509222038 | 0 | 162 | 1.0 | 1.0 | 0.00 | 0.00 | 0.00 | 70 | 998.8 |
| 20260509221537 | 0 | 170 | 0.0 | 0.0 | 0.00 | 0.00 | 0.00 | 69 | 998.9 |
| 20260509221037 | 0 | 171 | 0.0 | 1.0 | 0.00 | 0.00 | 0.00 | 70 | 998.9 |
| 20260509220537 | 0 | 174 | 0.0 | 0.0 | 0.00 | 0.00 | 0.00 | 70 | 998.9 |
| 20260509220036 | 0 | 175 | 0.0 | 0.0 | 0.00 | 0.00 | 0.00 | 67 | 998.8 |
| 20260509215536 | 0 | 174 | 0.0 | 0.0 | 0.00 | 0.00 | 0.00 | 68 | 998.8 |
| 20260509215036 | 0 | 166 | 0.0 | 0.0 | 0.00 | 0.00 | 0.00 | 68 | 999.1 |
| 20260509214035 | 0 | 164 | 3.0 | 4.0 | 0.00 | 0.00 | 0.00 | 67 | 998.9 |
| 20260509213535 | 0 | 166 | 1.0 | 1.0 | 0.00 | 0.00 | 0.00 | 68 | 998.9 |
| 20260509213034 | 0 | 177 | 0.0 | 0.0 | 0.00 | 0.00 | 0.00 | 67 | 999.0 |
| 20260509212533 | 0 | 175 | 0.0 | 0.0 | 0.00 | 0.00 | 0.00 | 68 | 998.8 |
| 20260509212033 | 0 | 172 | 2.0 | 2.0 | 0.00 | 0.00 | 0.00 | 66 | 998.7 |
| 20260509211532 | 0 | 172 | 1.0 | 1.0 | 0.00 | 0.00 | 0.00 | 66 | 998.8 |
| 20260509211032 | 0 | 172 | 1.0 | 1.0 | 0.00 | 0.00 | 0.00 | 65 | 998.5 |
| 20260509210531 | 0 | 165 | 0.0 | 0.0 | 0.00 | 0.00 | 0.00 | 65 | 998.5 |
| 20260509210031 | 0 | 195 | 0.0 | 0.0 | 0.00 | 0.00 | 0.00 | 65 | 998.6 |
| 20260509205530 | 0 | 146 | 0.0 | 0.0 | 0.00 | 0.00 | 0.00 | 67 | 998.7 |
| 20260509205029 | 0 | 168 | 0.0 | 0.0 | 0.00 | 0.00 | 0.00 | 66 | 998.6 |
| 20260509204529 | 0 | 136 | 0.0 | 0.0 | 0.00 | 0.00 | 0.00 | 67 | 998.8 |
| 20260509204027 | 0 | 176 | 0.0 | 1.0 | 0.00 | 0.00 | 0.00 | 67 | 998.8 |
| 20260509203527 | 0 | 174 | 0.0 | 1.0 | 0.00 | 0.00 | 0.00 | 68 | 998.7 |
| 20260509203027 | 0 | 186 | 0.0 | 0.0 | 0.00 | 0.00 | 0.00 | 68 | 998.7 |
| 20260509202526 | 0 | 173 | 0.0 | 1.0 | 0.00 | 0.00 | 0.00 | 67 | 998.8 |
| 20260509202026 | 0 | 176 | 1.0 | 1.0 | 0.00 | 0.00 | 0.00 | 67 | 998.6 |
| 20260509201526 | 0 | 142 | 0.0 | 0.0 | 0.00 | 0.00 | 0.00 | 66 | 999.0 |
| 20260509201026 | 0 | 163 | 1.0 | 1.0 | 0.00 | 0.00 | 0.00 | 67 | 998.8 |
| 20260509200525 | 0 | 165 | 2.0 | 3.0 | 0.00 | 0.00 | 0.00 | 67 | 998.7 |
| 20260509200025 | 0 | 150 | 0.0 | 0.0 | 0.00 | 0.00 | 0.00 | 69 | 998.6 |
| 20260509195525 | 0 | 126 | 0.0 | 1.0 | 0.00 | 0.00 | 0.00 | 70 | 998.9 |
| 20260509195024 | 0 | 168 | 0.0 | 0.0 | 0.00 | 0.00 | 0.00 | 70 | 999.1 |
| 20260509194524 | 0 | 177 | 0.0 | 0.0 | 0.00 | 0.00 | 0.00 | 69 | 999.1 |
| 20260509194024 | 0 | 159 | 0.0 | 1.0 | 0.00 | 0.00 | 0.00 | 67 | 999.1 |
| 20260509193523 | 0 | 171 | 1.0 | 1.0 | 0.00 | 0.00 | 0.00 | 68 | 999.1 |
| 20260509193023 | 0 | 173 | 0.0 | 0.0 | 0.00 | 0.00 | 0.00 | 67 | 999.2 |
| 20260509192523 | 0 | 169 | 1.0 | 1.0 | 0.00 | 0.00 | 0.00 | 66 | 999.2 |
| 20260509192022 | 0 | 177 | 0.0 | 0.0 | 0.00 | 0.00 | 0.00 | 66 | 999.2 |
| 20260509191522 | 0 | 167 | 0.0 | 0.0 | 0.00 | 0.00 | 0.00 | 65 | 999.5 |
| 20260509191021 | 0 | 172 | 0.0 | 0.0 | 0.00 | 0.00 | 0.00 | 64 | 999.3 |
| 20260509190521 | 0 | 170 | 1.0 | 2.0 | 0.00 | 0.00 | 0.00 | 65 | 999.4 |
| 20260509190021 | 0 | 179 | 0.0 | 1.0 | 0.00 | 0.00 | 0.00 | 63 | 999.6 |
| 20260509185521 | 0 | 99 | 0.0 | 1.0 | 0.00 | 0.00 | 0.00 | 63 | 999.4 |
| 20260509185020 | 0 | 149 | 0.0 | 0.0 | 0.00 | 0.00 | 0.00 | 60 | 999.3 |
| 20260509184520 | 0 | 157 | 0.0 | 0.0 | 0.00 | 0.00 | 0.00 | 60 | 999.4 |
| 20260509184020 | 0 | 201 | 0.0 | 1.0 | 0.00 | 0.00 | 0.00 | 59 | 999.3 |
| 20260509183519 | 0 | 162 | 3.0 | 4.0 | 0.00 | 0.00 | 0.00 | 57 | 999.3 |
| 20260509183019 | 0 | 195 | 0.0 | 0.0 | 0.00 | 0.00 | 0.00 | 57 | 999.4 |
| 20260509182518 | 0 | 233 | 0.0 | 1.0 | 0.00 | 0.00 | 0.00 | 58 | 999.4 |
| 20260509182018 | 0 | 153 | 0.0 | 0.0 | 0.00 | 0.00 | 0.00 | 59 | 999.5 |
| 20260509181518 | 0 | 165 | 2.0 | 3.0 | 0.00 | 0.00 | 0.00 | 59 | 999.4 |
| 20260509180503 | 0 | 176 | 0.0 | 0.0 | 0.00 | 0.00 | 0.00 | 56 | 999.8 |
| 20260509180002 | 0 | 159 | 0.0 | 0.0 | 0.00 | 0.00 | 0.00 | 57 | 999.9 |
| 20260509175502 | 0 | 153 | 0.0 | 0.0 | 0.00 | 0.00 | 0.00 | 56 | 1000.1 |
| 20260509175001 | 0 | 173 | 0.0 | 0.0 | 0.00 | 0.00 | 0.00 | 57 | 1000.3 |
| 20260509174501 | 0 | 169 | 0.0 | 1.0 | 0.00 | 0.00 | 0.00 | 55 | 1000.1 |
| 20260509174001 | 0 | 196 | 0.0 | 0.0 | 0.00 | 0.00 | 0.00 | 56 | 1000.4 |
| 20260509173500 | 0 | 188 | 0.0 | 0.0 | 0.00 | 0.00 | 0.00 | 55 | 1000.3 |
| 20260509173000 | 0 | 140 | 2.0 | 3.0 | 0.00 | 0.00 | 0.00 | 54 | 1000.2 |
| 20260509172500 | 0 | 160 | 0.0 | 1.0 | 0.00 | 0.00 | 0.00 | 55 | 1000.2 |
| 20260509171959 | 0 | 186 | 0.0 | 1.0 | 0.00 | 0.00 | 0.00 | 55 | 1000.3 |
| 20260509171459 | 0 | 156 | 0.0 | 0.0 | 0.00 | 0.00 | 0.00 | 56 | 1000.4 |
| 20260509170959 | 0 | 187 | 1.0 | 2.0 | 0.00 | 0.00 | 0.00 | 54 | 1000.4 |
| 20260509170458 | 0 | 138 | 0.0 | 1.0 | 0.00 | 0.00 | 0.00 | 56 | 1000.5 |
| 20260509165958 | 0 | 188 | 2.0 | 2.0 | 0.00 | 0.00 | 0.00 | 56 | 1000.8 |
| 20260509165458 | 0 | 148 | 0.0 | 0.0 | 0.00 | 0.00 | 0.00 | 57 | 1000.7 |
| 20260509164957 | 0 | 170 | 0.0 | 0.0 | 0.00 | 0.00 | 0.00 | 56 | 1001.0 |
| 20260509164457 | 0 | 160 | 0.0 | 0.0 | 0.00 | 0.00 | 0.00 | 60 | 1000.9 |
| 20260509163957 | 0 | 181 | 1.0 | 1.0 | 0.00 | 0.00 | 0.00 | 61 | 1000.8 |
| 20260509163456 | 0 | 149 | 0.0 | 0.0 | 0.00 | 0.00 | 0.00 | 58 | 1000.7 |
| 20260509162956 | 0 | 178 | 0.0 | 0.0 | 0.00 | 0.00 | 0.00 | 59 | 1000.8 |
| 20260509162456 | 0 | 159 | 0.0 | 0.0 | 0.00 | 0.00 | 0.00 | 60 | 1000.6 |
| 20260509161956 | 0 | 175 | 0.0 | 0.0 | 0.00 | 0.00 | 0.00 | 60 | 1000.7 |
| 20260509161455 | 0 | 159 | 0.0 | 0.0 | 0.00 | 0.00 | 0.00 | 61 | 1000.6 |
| 20260509160955 | 0 | 160 | 0.0 | 0.0 | 0.00 | 0.00 | 0.00 | 61 | 1000.7 |
| 20260509160455 | 0 | 197 | 1.0 | 2.0 | 0.00 | 0.00 | 0.00 | 61 | 1001.0 |
| 20260509155454 | 0 | 160 | 0.0 | 0.0 | 0.00 | 0.00 | 0.00 | 60 | 1001.0 |
| 20260509154954 | 0 | 180 | 0.0 | 0.0 | 0.00 | 0.00 | 0.00 | 62 | 1000.9 |
| 20260509154453 | 0 | 167 | 0.0 | 0.0 | 0.00 | 0.00 | 0.00 | 61 | 1001.0 |
| 20260509153953 | 0 | 60 | 0.0 | 2.0 | 0.00 | 0.00 | 0.00 | 62 | 1000.9 |
| 20260509153452 | 0 | 131 | 0.0 | 0.0 | 0.00 | 0.00 | 0.00 | 62 | 1000.8 |
| 20260509152952 | 0 | 162 | 1.0 | 1.0 | 0.00 | 0.00 | 0.00 | 63 | 1000.9 |
| 20260509152451 | 0 | 175 | 0.0 | 1.0 | 0.00 | 0.00 | 0.00 | 64 | 1000.9 |